View from above orbital plane
|
View from above satellite
|
Ground track
|
The orbit data is extracted from the following two-line orbital elements,
1 45874U 20046B 21058.81672238 0.00002500 00000-0 20674-3 0 05
2 45874 53.9731 20.4444 0003428 136.7530 223.2763 14.98470362 07
Epoch (UTC): | 27 February 2021 19:36:04 |
Eccentricity: | 0.0003428 |
inclination: | 53.9731° |
perigee height: | 569 km |
apogee height: | 574 km |
right ascension of ascending node: | 20.4444° |
argument of perigee: | 136.7530° |
revolutions per day: | 14.98470362 |
mean anomaly at epoch: | 223.2763° |
orbit number at epoch: | 0 |
The dashed part of the orbit path shows where the satellite is in the earth's shadow,
|
|